Time,TemperatureF,DewpointF,PressureIn,WindDirection,WindDirectionDegrees,WindSpeedMPH,WindSpeedGustMPH,Humidity,HourlyPrecipIn,Conditions,Clouds,dailyrainin,SoftwareType,DateUTC
2013-05-08 00:02:00,53.0,52.0,30.16,SW,214,5.0,5.0,96,0.00,,,-99.99,,2013-05-08 04:02:00,
2013-05-08 00:13:00,53.0,52.0,30.16,SW,214,5.0,5.0,96,0.00,,,-99.99,,2013-05-08 04:13:00,
2013-05-08 00:23:00,53.0,52.0,30.16,SW,216,0.0,4.0,96,0.00,,,-99.99,,2013-05-08 04:23:00,
2013-05-08 00:33:00,53.0,52.0,30.16,SSW,208,0.0,4.0,96,0.00,,,-99.99,,2013-05-08 04:33:00,
2013-05-08 00:43:00,53.0,52.0,30.16,SSW,208,0.0,4.0,96,0.00,,,-99.99,,2013-05-08 04:43:00,
2013-05-08 00:53:00,53.0,52.0,30.16,SSW,198,0.0,6.0,97,0.00,,,-99.99,,2013-05-08 04:53:00,
2013-05-08 01:02:00,53.0,52.0,30.16,SSW,205,0.0,2.0,97,0.00,,,-99.99,,2013-05-08 05:02:00,
2013-05-08 01:12:00,53.0,52.0,30.16,SSW,205,0.0,2.0,97,0.00,,,-99.99,,2013-05-08 05:12:00,
2013-05-08 01:22:00,53.0,52.0,30.16,West,275,0.0,4.0,97,0.00,,,-99.99,,2013-05-08 05:22:00,
2013-05-08 01:32:00,54.0,53.0,30.16,WSW,246,0.0,2.0,97,0.00,,,-99.99,,2013-05-08 05:32:00,
2013-05-08 01:42:00,54.0,53.0,30.16,WSW,246,0.0,2.0,97,0.00,,,-99.99,,2013-05-08 05:42:00,
2013-05-08 01:52:00,53.0,52.0,30.16,WSW,240,0.0,4.0,96,0.00,,,-99.99,,2013-05-08 05:52:00,
2013-05-08 02:02:00,53.0,52.0,30.16,SSW,195,4.0,5.0,96,0.00,,,-99.99,,2013-05-08 06:02:00,
2013-05-08 02:12:00,53.0,52.0,30.16,SSW,195,4.0,5.0,96,0.00,,,-99.99,,2013-05-08 06:12:00,
2013-05-08 02:21:00,52.0,51.0,30.16,SSW,198,0.0,4.0,96,0.00,,,-99.99,,2013-05-08 06:21:00,
2013-05-08 02:32:00,52.0,51.0,30.16,SSE,153,0.0,4.0,95,0.00,,,-99.99,,2013-05-08 06:32:00,
2013-05-08 02:42:00,52.0,51.0,30.16,SSE,153,0.0,4.0,95,0.00,,,-99.99,,2013-05-08 06:42:00,
2013-05-08 02:52:00,51.0,50.0,30.16,SSW,211,0.0,2.0,96,0.00,,,-99.99,,2013-05-08 06:52:00,
2013-05-08 03:02:00,50.0,49.0,30.16,South,187,0.0,2.0,96,0.00,,,-99.99,,2013-05-08 07:02:00,
2013-05-08 03:11:00,50.0,49.0,30.16,South,187,0.0,2.0,96,0.00,,,-99.99,,2013-05-08 07:11:00,
2013-05-08 03:22:00,50.0,49.0,30.16,South,186,0.0,2.0,97,0.00,,,-99.99,,2013-05-08 07:22:00,
2013-05-08 03:32:00,50.0,49.0,30.16,South,186,0.0,2.0,97,0.00,,,-99.99,,2013-05-08 07:32:00,
2013-05-08 03:42:00,50.0,49.0,30.16,South,186,0.0,2.0,97,0.00,,,-99.99,,2013-05-08 07:42:00,
2013-05-08 03:52:00,49.0,48.0,30.16,SSE,160,0.0,4.0,97,0.00,,,-99.99,,2013-05-08 07:52:00,
2013-05-08 04:02:00,49.0,48.0,30.16,SSE,161,0.0,3.0,97,0.00,,,-99.99,,2013-05-08 08:02:00,
2013-05-08 04:12:00,49.0,48.0,30.16,SSE,161,0.0,3.0,97,0.00,,,-99.99,,2013-05-08 08:12:00,
2013-05-08 04:22:00,49.0,48.0,30.16,SSE,160,0.0,0.0,97,0.00,,,-99.99,,2013-05-08 08:22:00,
2013-05-08 04:32:00,49.0,48.0,30.16,SSE,160,0.0,3.0,97,0.00,,,-99.99,,2013-05-08 08:32:00,
2013-05-08 04:42:00,49.0,48.0,30.16,SSE,160,0.0,3.0,97,0.00,,,-99.99,,2013-05-08 08:42:00,
2013-05-08 04:52:00,48.0,47.0,30.17,SSW,208,2.0,4.0,97,0.00,,,-99.99,,2013-05-08 08:52:00,
2013-05-08 05:02:00,48.0,47.0,30.17,SSW,199,2.0,4.0,97,0.00,,,-99.99,,2013-05-08 09:02:00,
2013-05-08 05:11:00,48.0,47.0,30.17,SSW,199,2.0,4.0,97,0.00,,,-99.99,,2013-05-08 09:11:00,
2013-05-08 05:21:00,47.0,46.0,30.17,SSW,195,2.0,5.0,97,0.00,,,-99.99,,2013-05-08 09:21:00,
2013-05-08 05:32:00,46.0,45.0,30.18,SW,227,0.0,2.0,97,0.00,,,-99.99,,2013-05-08 09:32:00,
2013-05-08 05:42:00,46.0,45.0,30.18,SW,227,0.0,2.0,97,0.00,,,-99.99,,2013-05-08 09:42:00,
2013-05-08 05:53:00,46.0,45.0,30.19,SW,227,0.0,2.0,97,0.00,,,-99.99,,2013-05-08 09:53:00,
2013-05-08 06:02:00,46.0,45.0,30.19,SW,227,0.0,0.0,97,0.00,,,-99.99,,2013-05-08 10:02:00,
2013-05-08 06:12:00,46.0,45.0,30.19,SW,227,0.0,0.0,97,0.00,,,-99.99,,2013-05-08 10:12:00,
2013-05-08 06:22:00,46.0,45.0,30.19,SW,227,0.0,2.0,97,0.00,,,-99.99,,2013-05-08 10:22:00,
2013-05-08 06:33:00,46.0,45.0,30.20,SW,227,0.0,2.0,98,0.00,,,-99.99,,2013-05-08 10:33:00,
2013-05-08 06:42:00,46.0,45.0,30.20,SW,227,0.0,2.0,98,0.00,,,-99.99,,2013-05-08 10:42:00,
2013-05-08 06:53:00,46.0,45.0,30.21,SW,227,0.0,4.0,98,0.00,,,-99.99,,2013-05-08 10:53:00,
2013-05-08 07:02:00,47.0,46.0,30.21,SW,226,2.0,5.0,98,0.00,,,-99.99,,2013-05-08 11:02:00,
2013-05-08 07:11:00,47.0,46.0,30.21,SW,226,2.0,5.0,98,0.00,,,-99.99,,2013-05-08 11:11:00,
2013-05-08 07:22:00,46.0,45.0,30.22,SW,226,0.0,4.0,98,0.00,,,-99.99,,2013-05-08 11:22:00,
2013-05-08 07:32:00,47.0,46.0,30.22,SW,230,0.0,1.0,98,0.00,,,-99.99,,2013-05-08 11:32:00,
2013-05-08 07:42:00,47.0,46.0,30.22,SW,230,0.0,1.0,98,0.00,,,-99.99,,2013-05-08 11:42:00,
2013-05-08 07:52:00,47.0,46.0,30.23,SW,230,0.0,2.0,98,0.00,,,-99.99,,2013-05-08 11:52:00,
2013-05-08 08:02:00,48.0,47.0,30.23,SW,230,1.0,4.0,98,0.00,,,-99.99,,2013-05-08 12:02:00,
2013-05-08 08:11:00,48.0,47.0,30.23,SW,230,1.0,4.0,98,0.00,,,-99.99,,2013-05-08 12:11:00,
2013-05-08 08:21:00,48.0,47.0,30.24,South,178,0.0,6.0,98,0.00,,,-99.99,,2013-05-08 12:21:00,
2013-05-08 08:32:00,49.0,48.0,30.24,SSE,151,0.0,7.0,98,0.00,,,-99.99,,2013-05-08 12:32:00,
2013-05-08 08:42:00,49.0,48.0,30.24,SSE,151,0.0,7.0,98,0.00,,,-99.99,,2013-05-08 12:42:00,
2013-05-08 08:52:00,49.0,48.0,30.24,SSE,164,1.0,4.0,98,0.00,,,-99.99,,2013-05-08 12:52:00,
2013-05-08 09:01:00,50.0,49.0,30.25,ESE,105,0.0,7.0,97,0.00,,,-99.99,,2013-05-08 13:01:00,
2013-05-08 09:11:00,50.0,49.0,30.25,ESE,105,0.0,7.0,97,0.00,,,-99.99,,2013-05-08 13:11:00,
2013-05-08 09:21:00,51.0,50.0,30.25,SSE,163,0.0,6.0,95,0.00,,,-99.99,,2013-05-08 13:21:00,
2013-05-08 09:32:00,51.0,50.0,30.25,SSE,152,1.0,6.0,95,0.00,,,-99.99,,2013-05-08 13:32:00,
2013-05-08 09:42:00,51.0,50.0,30.25,SSE,152,1.0,6.0,95,0.00,,,-99.99,,2013-05-08 13:42:00,
2013-05-08 09:52:00,52.0,50.0,30.26,East,86,1.0,5.0,94,0.00,,,-99.99,,2013-05-08 13:52:00,
2013-05-08 10:02:00,54.0,52.0,30.26,SSW,209,1.0,7.0,93,0.00,,,-99.99,,2013-05-08 14:02:00,
2013-05-08 10:11:00,54.0,52.0,30.26,SSW,209,1.0,7.0,93,0.00,,,-99.99,,2013-05-08 14:11:00,
2013-05-08 10:21:00,55.0,53.0,30.27,SE,130,5.0,6.0,92,0.00,,,-99.99,,2013-05-08 14:21:00,
2013-05-08 10:32:00,56.0,53.0,30.27,ESE,120,3.0,7.0,89,0.00,,,-99.99,,2013-05-08 14:32:00,
2013-05-08 10:42:00,56.0,53.0,30.27,ESE,120,3.0,7.0,89,0.00,,,-99.99,,2013-05-08 14:42:00,
2013-05-08 10:52:00,60.0,55.0,30.26,SSE,164,5.0,7.0,84,0.00,,,-99.99,,2013-05-08 14:52:00,
2013-05-08 11:02:00,61.0,55.0,30.26,WNW,303,2.0,9.0,81,0.00,,,-99.99,,2013-05-08 15:02:00,
2013-05-08 11:11:00,61.0,55.0,30.26,WNW,303,2.0,9.0,81,0.00,,,-99.99,,2013-05-08 15:11:00,
2013-05-08 11:21:00,63.0,56.0,30.25,SSE,150,3.0,8.0,78,0.00,,,-99.99,,2013-05-08 15:21:00,
2013-05-08 11:33:00,66.0,57.0,30.25,NNE,28,1.0,7.0,74,0.00,,,-99.99,,2013-05-08 15:33:00,
2013-05-08 11:42:00,66.0,57.0,30.25,NNE,28,1.0,7.0,74,0.00,,,-99.99,,2013-05-08 15:42:00,
2013-05-08 11:53:00,67.0,57.0,30.25,SE,139,6.0,12.0,70,0.00,,,-99.99,,2013-05-08 15:53:00,
2013-05-08 12:03:00,66.0,57.0,30.25,SW,219,2.0,12.0,72,0.00,,,-99.99,,2013-05-08 16:03:00,
2013-05-08 12:12:00,66.0,57.0,30.25,SW,219,2.0,12.0,72,0.00,,,-99.99,,2013-05-08 16:12:00,
2013-05-08 12:23:00,67.0,57.0,30.24,South,187,2.0,11.0,70,0.00,,,-99.99,,2013-05-08 16:23:00,
2013-05-08 12:33:00,68.0,58.0,30.24,SSE,160,4.0,14.0,70,0.00,,,-99.99,,2013-05-08 16:33:00,
2013-05-08 12:42:00,68.0,58.0,30.24,SSE,160,4.0,14.0,70,0.00,,,-99.99,,2013-05-08 16:42:00,
2013-05-08 12:52:00,69.0,58.0,30.24,SE,130,3.0,13.0,69,0.00,,,-99.99,,2013-05-08 16:52:00,
2013-05-08 13:02:00,69.0,60.0,30.24,South,189,8.0,15.0,73,0.00,,,-99.99,,2013-05-08 17:02:00,
2013-05-08 13:12:00,69.0,60.0,30.24,South,189,8.0,15.0,73,0.00,,,-99.99,,2013-05-08 17:12:00,
2013-05-08 13:22:00,70.0,60.0,30.23,SW,217,6.0,11.0,70,0.00,,,-99.99,,2013-05-08 17:22:00,
2013-05-08 13:32:00,70.0,60.0,30.23,SW,217,6.0,11.0,70,0.00,,,-99.99,,2013-05-08 17:32:00,
2013-05-08 13:41:00,70.0,60.0,30.23,SW,217,6.0,11.0,70,0.00,,,-99.99,,2013-05-08 17:41:00,
2013-05-08 13:52:00,70.0,60.0,30.23,East,91,1.0,13.0,70,0.00,,,-99.99,,2013-05-08 17:52:00,
2013-05-08 14:02:00,70.0,59.0,30.24,East,95,1.0,13.0,68,0.00,,,-99.99,,2013-05-08 18:02:00,
2013-05-08 14:12:00,70.0,59.0,30.24,East,95,1.0,13.0,68,0.00,,,-99.99,,2013-05-08 18:12:00,
2013-05-08 14:21:00,71.0,60.0,30.23,SE,145,2.0,12.0,68,0.00,,,-99.99,,2013-05-08 18:21:00,
2013-05-08 14:32:00,70.0,59.0,30.24,SW,219,1.0,13.0,68,0.00,,,-99.99,,2013-05-08 18:32:00,
2013-05-08 14:42:00,70.0,59.0,30.24,SW,219,1.0,13.0,68,0.00,,,-99.99,,2013-05-08 18:42:00,
2013-05-08 14:52:00,70.0,59.0,30.23,SE,144,2.0,14.0,68,0.00,,,-99.99,,2013-05-08 18:52:00,
2013-05-08 15:01:00,71.0,59.0,30.23,SW,218,5.0,14.0,67,0.00,,,-99.99,,2013-05-08 19:01:00,
2013-05-08 15:11:00,71.0,59.0,30.23,SW,218,5.0,14.0,67,0.00,,,-99.99,,2013-05-08 19:11:00,
2013-05-08 15:22:00,71.0,59.0,30.22,WSW,247,1.0,13.0,66,0.00,,,-99.99,,2013-05-08 19:22:00,
2013-05-08 15:32:00,71.0,59.0,30.22,West,262,2.0,14.0,66,0.00,,,-99.99,,2013-05-08 19:32:00,
2013-05-08 15:42:00,71.0,59.0,30.22,West,262,2.0,14.0,66,0.00,,,-99.99,,2013-05-08 19:42:00,
2013-05-08 15:52:00,70.0,59.0,30.21,South,191,9.0,13.0,67,0.00,,,-99.99,,2013-05-08 19:52:00,
2013-05-08 16:02:00,70.0,59.0,30.21,SE,132,1.0,14.0,68,0.00,,,-99.99,,2013-05-08 20:02:00,
2013-05-08 16:11:00,70.0,59.0,30.21,SE,132,1.0,14.0,68,0.00,,,-99.99,,2013-05-08 20:11:00,
2013-05-08 16:22:00,70.0,59.0,30.21,SE,146,8.0,14.0,68,0.00,,,-99.99,,2013-05-08 20:22:00,
2013-05-08 16:32:00,68.0,58.0,30.21,ENE,73,5.0,16.0,71,0.00,,,-99.99,,2013-05-08 20:32:00,
2013-05-08 16:42:00,68.0,59.0,30.21,South,177,8.0,11.0,73,0.00,,,-99.99,,2013-05-08 20:42:00,
2013-05-08 16:52:00,68.0,59.0,30.21,South,177,8.0,11.0,73,0.00,,,-99.99,,2013-05-08 20:52:00,
2013-05-08 17:01:00,68.0,59.0,30.21,SE,124,7.0,11.0,72,0.00,,,-99.99,,2013-05-08 21:01:00,
2013-05-08 17:12:00,67.0,58.0,30.21,SSE,157,4.0,13.0,73,0.00,,,-99.99,,2013-05-08 21:12:00,
2013-05-08 17:21:00,67.0,58.0,30.21,SSE,157,4.0,13.0,73,0.00,,,-99.99,,2013-05-08 21:21:00,
2013-05-08 17:33:00,66.0,57.0,30.20,SW,228,1.0,12.0,74,0.00,,,-99.99,,2013-05-08 21:33:00,
2013-05-08 17:43:00,66.0,58.0,30.21,SW,216,2.0,11.0,75,0.00,,,-99.99,,2013-05-08 21:43:00,
2013-05-08 17:53:00,66.0,58.0,30.21,SW,216,2.0,11.0,75,0.00,,,-99.99,,2013-05-08 21:53:00,
2013-05-08 18:03:00,64.0,56.0,30.20,SSW,196,0.0,11.0,75,0.00,,,-99.99,,2013-05-08 22:03:00,
2013-05-08 18:12:00,63.0,56.0,30.20,SE,131,4.0,9.0,77,0.00,,,-99.99,,2013-05-08 22:12:00,
2013-05-08 18:22:00,63.0,56.0,30.20,SE,131,4.0,9.0,77,0.00,,,-99.99,,2013-05-08 22:22:00,
2013-05-08 18:33:00,62.0,55.0,30.20,SE,145,3.0,9.0,78,0.00,,,-99.99,,2013-05-08 22:33:00,
2013-05-08 18:42:00,61.0,55.0,30.20,North,355,1.0,9.0,82,0.00,,,-99.99,,2013-05-08 22:42:00,
2013-05-08 18:53:00,61.0,55.0,30.20,North,355,1.0,9.0,82,0.00,,,-99.99,,2013-05-08 22:53:00,
2013-05-08 19:01:00,58.0,53.0,30.20,South,185,1.0,7.0,84,0.00,,,-99.99,,2013-05-08 23:01:00,
2013-05-08 19:12:00,57.0,53.0,30.20,SW,228,2.0,7.0,87,0.00,,,-99.99,,2013-05-08 23:12:00,
2013-05-08 19:22:00,57.0,53.0,30.20,SW,228,2.0,7.0,87,0.00,,,-99.99,,2013-05-08 23:22:00,
2013-05-08 19:32:00,56.0,52.0,30.20,SSW,194,2.0,6.0,88,0.00,,,-99.99,,2013-05-08 23:32:00,
2013-05-08 19:42:00,55.0,52.0,30.20,SSE,159,4.0,5.0,89,0.00,,,-99.99,,2013-05-08 23:42:00,
2013-05-08 19:52:00,55.0,52.0,30.20,SSE,159,4.0,5.0,89,0.00,,,-99.99,,2013-05-08 23:52:00,
2013-05-08 20:02:00,54.0,51.0,30.20,SSW,203,4.0,5.0,90,0.00,,,-99.99,,2013-05-09 00:02:00,
2013-05-08 20:12:00,54.0,51.0,30.20,SSW,203,4.0,5.0,90,0.00,,,-99.99,,2013-05-09 00:12:00,
2013-05-08 20:21:00,53.0,51.0,30.20,South,173,2.0,9.0,92,0.00,,,-99.99,,2013-05-09 00:21:00,
2013-05-08 20:32:00,51.0,49.0,30.20,SSW,195,4.0,6.0,93,0.00,,,-99.99,,2013-05-09 00:32:00,
2013-05-08 20:42:00,51.0,49.0,30.20,South,189,0.0,8.0,94,0.00,,,-99.99,,2013-05-09 00:42:00,
2013-05-08 20:52:00,51.0,49.0,30.20,South,189,0.0,8.0,94,0.00,,,-99.99,,2013-05-09 00:52:00,
2013-05-08 21:01:00,51.0,50.0,30.20,SSW,210,0.0,5.0,95,0.00,,,-99.99,,2013-05-09 01:01:00,
2013-05-08 21:12:00,50.0,49.0,30.20,South,183,0.0,5.0,96,0.00,,,-99.99,,2013-05-09 01:12:00,
2013-05-08 21:22:00,50.0,49.0,30.20,South,183,0.0,5.0,96,0.00,,,-99.99,,2013-05-09 01:22:00,
2013-05-08 21:32:00,50.0,49.0,30.21,SSW,201,1.0,4.0,96,0.00,,,-99.99,,2013-05-09 01:32:00,
2013-05-08 21:42:00,50.0,49.0,30.20,SSW,201,0.0,5.0,96,0.00,,,-99.99,,2013-05-09 01:42:00,
2013-05-08 21:52:00,50.0,49.0,30.20,SSW,201,0.0,5.0,96,0.00,,,-99.99,,2013-05-09 01:52:00,
2013-05-08 22:02:00,50.0,49.0,30.20,SSW,198,0.0,5.0,96,0.00,,,-99.99,,2013-05-09 02:02:00,
2013-05-08 22:12:00,50.0,49.0,30.20,SW,220,0.0,4.0,97,0.00,,,-99.99,,2013-05-09 02:12:00,
2013-05-08 22:22:00,50.0,49.0,30.20,SW,220,0.0,4.0,97,0.00,,,-99.99,,2013-05-09 02:22:00,
2013-05-08 22:32:00,50.0,49.0,30.20,South,180,0.0,4.0,97,0.00,,,-99.99,,2013-05-09 02:32:00,
2013-05-08 22:42:00,50.0,49.0,30.20,South,180,0.0,4.0,97,0.00,,,-99.99,,2013-05-09 02:42:00,
2013-05-08 22:52:00,50.0,49.0,30.20,South,180,0.0,4.0,97,0.00,,,-99.99,,2013-05-09 02:52:00,
2013-05-08 23:02:00,49.0,48.0,30.19,SE,139,2.0,4.0,97,0.00,,,-99.99,,2013-05-09 03:02:00,
2013-05-08 23:11:00,49.0,48.0,30.19,SE,139,2.0,4.0,97,0.00,,,-99.99,,2013-05-09 03:11:00,
2013-05-08 23:21:00,49.0,48.0,30.19,SSE,150,3.0,4.0,97,0.00,,,-99.99,,2013-05-09 03:21:00,
2013-05-08 23:33:00,49.0,48.0,30.19,SSE,156,3.0,3.0,97,0.00,,,-99.99,,2013-05-09 03:33:00,
2013-05-08 23:43:00,49.0,48.0,30.19,SSE,156,3.0,3.0,97,0.00,,,-99.99,,2013-05-09 03:43:00,
2013-05-08 23:53:00,49.0,48.0,30.19,SSE,156,0.0,4.0,97,0.00,,,-99.99,,2013-05-09 03:53:00,